Regional Weather Roundup
Issued by NWS Austin/San Antonio, TX

Home | Current Version | Previous Version | Text Only | Print | Product List | Glossary On
Versions: 1 2 3 4 5 6 7 8 9 10 11 12 13 14 15 16 17 18 19 20 21 22 23 24 25 26 27 28 29 30 31 32 33 34 35 36 37 38 39 40 41 42 43 44 45 46 47 48 49 50
000
ASUS44 KEWX 190811
RWREWX
SOUTH TEXAS REGIONAL WEATHER ROUNDUP
NATIONAL WEATHER SERVICE AUSTIN/SAN ANTONIO TX
300 AM CDT SUN AUG 19 2018

NOTE: "FAIR" INDICATED FEW OR NO CLOUDS BELOW 12,000 FEET WITH NO
SIGNIFICANT WEATHER AND/OR OBSTRUCTIONS TO VISIBILITY.

* - THESE STATIONS ARE NOT NWS OR FAA STATIONS...AND ARE NOT SUBJECT
    TO NWS AND FAA QUALITY CONTROL.

TXZ171-172-183>190-190900-
TEXAS HILL COUNTRY AND EDWARDS PLATEAU

CITY           SKY/WX    TMP DP  RH WIND       PRES   REMARKS
JUNCTION       CLEAR     79  67  66 S7        29.94F
*LLANO         CLEAR     82  64  54 CALM      29.95S
BURNET         CLEAR     80  67  64 S8        29.94F
*HORSESHOE BAY CLEAR     79  66  64 S6        29.92S
*KERRVILLE     CLEAR     76  70  80 S5        29.97F
*FREDERICKSBRG CLEAR     77  65  65 CALM      29.97S
*ROCKSPRINGS   CLEAR     77  68  73 S15G21    30.03S
*BOERNE STAGE  CLEAR     73  68  83 S5        29.97S
*CASTROVILLE   CLEAR     78  68  71 CALM      29.94F
HONDO          CLEAR     79  70  74 E5        29.93S
*UVALDE        CLEAR     80  71  74 SE8       29.93S
DEL RIO        CLEAR     82  69  64 E8        29.87S
LAUGHLIN AFB   CLEAR     81  69  66 SE9       29.88S
CARRIZO SPRGS  CLEAR     81  70  69 SE8       29.88F
*EAGLE PASS    SUNNY     84  68  58 SE8G15    29.89S
*FAITH RANCH   CLEAR     84  66  54 SE15      29.90S
$$

TXZ173-191>194-202-209-217>225-228-190900-
CENTRAL AND SOUTH CENTRAL TEXAS

CITY           SKY/WX    TMP DP  RH WIND       PRES   REMARKS
GEORGETOWN     PTCLDY    81  70  69 S13       29.92S
AUSTIN/BERGSTM PTCLDY    79  73  82 S8        29.91S
AUSTIN/MABRY   NOT AVBL
*AUSTIN/EXEC   PTCLDY    77  73  88 SW8       29.92S
*LAGO VISTA    PTCLDY    79  69  70 S9        29.95S
SAN MARCOS     CLEAR     77  73  87 SW6       29.93F
NEW BRAUNFELS  CLEAR     77  73  87 S7        29.91F
RANDOLPH AFB   CLEAR     76  72  87 S5        29.93S
PT SAN ANTONIO CLEAR     77  72  84 SE6       29.91F
SAN ANTONIO    PTCLDY    78  71  79 S7        29.93F
STINSON FIELD  CLEAR     79  72  79 CALM      29.90F
*LA GRANGE     CLOUDY    80  77  92 S6        29.89F
*GIDDINGS      CLOUDY    78  74  86 S6        29.92F
*GONZALES      CLOUDY    78  77  96 S6        29.91F
$$

TXZ163>164-176>182-195>201-210>213-226-227-235-190900-
SOUTHEAST TEXAS

CITY           SKY/WX    TMP DP  RH WIND       PRES   REMARKS
COLLEGE STN    CLOUDY    80  76  87 S9        29.90F
*BRYAN         CLOUDY    80  76  89 S9        29.91F
*CALDWELL      CLOUDY    80  74  82 S9        29.91S
*CROCKETT        N/A     81  73  78 S7        29.93S
*BRENHAM       CLOUDY    81  76  85 S8        29.91F
HUNTSVILLE     PTCLDY    80  74  81 S7        29.91F
CONROE         PTCLDY    80  78  94 S7        29.92F
HOUSTON BUSH   FAIR      81  78  91 S5        29.91F
HOUSTON HOBBY  FAIR      80  79  96 SW6       29.91F
*HOUSTON SW AP FAIR      76  75  97 MISG      29.93F
PEARLAND       FAIR      79  78  97 S5        29.93F
HOUSTON HOOKS  FAIR      79  77  94 S6        29.91F
ELLINGTON FLD  NOT AVBL
SUGAR LAND     FAIR      81  76  84 S8        29.91F
*HOUSTON EXEC  FAIR      79  77  94 S7        29.93F
*CLEVELAND MUN FAIR      76  73  89 CALM      29.93S
*WHARTON         N/A     76  73  93 CALM      29.93S
*COLUMBUS      FAIR      78  76  94 S3        29.93S
*EAGLE LAKE    CLOUDY    79  77  92 S6        29.92S
$$

TXZ214>216-236>238-190900-
THE UPPER TEXAS COAST

CITY           SKY/WX    TMP DP  RH WIND       PRES   REMARKS
*ORANGE        FAIR      81  78  90 SW6       29.95S HX  90
PORT ARTHUR    FAIR      79  75  87 SW5       29.92S
GALVESTON      FAIR      84  79  85 SW10      29.93F HX  96
ANGLETON       FAIR      80  76  87 SW3       29.92F
*BAY CITY      PTCLDY    78  76  95 S5        29.92F
PALACIOS       PTCLDY    85  79  82 S13       29.91F HX  98
$$

TXZ229>234-239>247-190900-
TEXAS COASTAL BEND AND RIO GRANDE PLAINS

CITY           SKY/WX    TMP DP  RH WIND       PRES   REMARKS
VICTORIA       CLEAR     79  76  90 S7        29.91F
*BEEVILLE      CLEAR     78  76  91 S8        29.92F
ROCKPORT       PTCLDY    83  76  79 S8        29.91F HX  91
*PORT ARANSAS  CLEAR     82  78  88 S13       29.93F HX  91
*PORT LAVACA   CLEAR     81  77  88 S5        29.92F
*INGLESIDE     PTCLDY    83  77  81 S16       29.91F HX  93
CORPUS CHRISTI PTCLDY    80  78  94 S10       29.90F
CORPUS NAS     CLEAR     83  79  88 S15       29.90F HX  94
*ROBSTOWN      CLEAR     80  75  86 S8        29.92F
ALICE          CLEAR     77  75  93 S7        29.91F
KINGSVILLE NAS CLEAR     79  75  87 S9        29.91F
COTULLA        CLEAR     79  73  82 SE8       29.89F
LAREDO         CLEAR     82  70  66 SE13      29.90F
$$

TXZ248>255-190900-
DEEP SOUTH TEXAS

CITY           SKY/WX    TMP DP  RH WIND       PRES   REMARKS
BROWNSVILLE    FAIR      82  78  88 S13       29.92F HX  91
PORT ISABEL    FAIR      82  76  81 S12       29.91F
HARLINGEN      CLEAR     81  78  91 S12       29.90F
*HEBBRONVILLE  CLEAR     78  70  76 S3        29.93F
MCALLEN        CLEAR     83  77  82 SE9       29.90F HX  92
*WESLACO       CLOUDY    81  74  81 S8        29.90F
FALFURRIAS       N/A     78  74  86 SE5       29.91F
EDINBURG       FAIR      82  74  77 SE6       29.91F
*ZAPATA        FAIR      81  71  69 SE12      29.89F
$$

TXZ213>215-236>238-242>244-246-247-251-254-255-190900-
CMAN STATIONS

STATION/POSITION TIME  TEMP    WIND        PRES    WAVE
                       AIR SEA DIR/SP/G            HT/PER
                 (UTC) (F)     (DEG/KT/KT) (MB)    (FT/S)
SABINE PASS      0742          200/  7/ 11   N/A
SEA RIM ST PARK  0800   84     210/ 10/ 14 1013.8
NORTH JETTY/GLS  0742          220/ 12/ 17   N/A
EAGLE POINT      0742          230/  8/ 10   N/A
MORGANS POINT    0742   82 87  210/  4/  7 1013.0
PORT O`CONNOR    0742          190/ 13/ 19   N/A
PORT ARANSAS     0800   82 85  170/ 15/ 16 1012.5
MALAQUITE BEACH  0742   82 83  160/ 13/ 15 1012.5
BAFFIN BAY       0742   81 84  150/ 13/ 18 1013.0
PORT ISABEL      0742   82 82  160/ 12/ 15 1013.3
$$




USA.gov is the U.S. government's official web portal to all federal, state and local government web resources and services.